Location: Homewood
(41.1836°S, 175.9581°E)
Time: 03:17:57
(UTC+00:00)

Milstar 3 Cent rocket - Pass Details

Date: 18 April 2024
Orbit: 709 x 5143 km, 28.3° (Epoch: 22 May)

Event Time Altitude Azimuth Distance (km) Brightness Sun altitude
Exits shadow 16:46:21 20° 318° (NW) 3,753 5.1 -24.0°
Maximum altitude 16:52:21 32° 1° (N) 2,384 4.4 -22.9°
Drops below altitude 10° 16:58:27 10° 63° (ENE) 2,876 5.8 -21.8°
Sets 17:00:49 0° 74° (ENE) 3,562 6.7 -21.3°
